Location: Hradec Kralove
(50.2170°N, 15.8330°E)
Time: 10:18:27
(UTC+01:00)

ISS - Pass Details

Date: 17 February 2026
Orbit: 416 x 426 km, 51.6° (Epoch: 9 March)

Event Time Altitude Azimuth Distance (km) Brightness Sun altitude
Exits shadow 04:06:27 12° 115° (ESE) 1,393 -0.6 -28.9°
Drops below altitude 10° 04:07:00 10° 106° (ESE) 1,493 -0.3 -28.8°
Sets 04:09:53 0° 79° (E) 2,359 1.3 -28.3°
